Terminal Aerodrome Forecast
Issued by NWS

Home | Current Version | Previous Version | Text Only | Print | Product List | Glossary On
Versions: 1 2 3 4 5 6 7 8 9 10 11 12 13 14
000
FTUS43 KEAX 040500
TAFMKC
TAF
KMKC 040520Z 0406/0506 19012KT P6SM SCT150
     FM041000 20009KT P6SM VCTS SCT050CB
     FM041400 20011KT P6SM SCT050=

USA.gov is the U.S. government's official web portal to all federal, state and local government web resources and services.